Location: Newark
(48.0000°N, 67.0000°E)
Time: 02:33:52
(UTC+00:00)

N. Korean satellite - Pass Details

Date: 30 January 2020
Orbit: 456 x 505 km, 97.2° (Epoch: 26 February)

Event Time Altitude Azimuth Distance (km) Brightness Sun altitude
Rises 00:25:33 0° 28° (NNE) 2,557 10.6 -26.4°
Reaches altitude 10° 00:28:12 10° 49° (NE) 1,681 9.9 -26.0°
Maximum altitude 00:30:38 17° 92° (E) 1,305 9.6 -25.5°
Drops below altitude 10° 00:33:05 10° 134° (SE) 1,689 9.8 -25.1°
Sets 00:35:44 0° 155° (SSE) 2,574 10.6 -24.7°
